Home   Weather   Rankin Inlet   Past weeks

Flag for Canada Past Weather in Rankin Inlet, Nunavut, Canada — Yesterday and Last 2 Weeks

Now
-2 °F

Partly sunny.


Feels Like: -22 °F
Forecast: -17 / 0 °F
Wind: 15 mph from North

Location: Rankin Inlet

Current Time: Apr 23, 2017 at 8:55:06 pm

Latest Report: Apr 23, 2017 at 8:00 pm


Visibility: 15 mi

Pressure: 30.30 "Hg

Humidity: 77%

Dew Point: -8 °F

Location of Rankin InletLocation

Past Weather in Rankin Inlet — Graph

°F

Rankin Inlet Temperature Yesterday

Maximum temperature yesterday: 0 °F (at 12:00 am)
Minimum temperature yesterday: -11 °F (at 10:48 pm)
Average temperature yesterday: -5 °F

High & Low Weather Summary for the Past Weeks

 TemperatureHumidityPressure
High21 °F (Apr 20, 9:00 pm)93% (Apr 20, 8:00 pm)30.51 "Hg (Apr 20, 8:00 pm)
Low-18 °F (Apr 23, 5:00 am)69% (Apr 14, 3:00 am)29.69 "Hg (Apr 17, 6:00 pm)
Average-3 °F79%30.14 "Hg
* Reported Apr 8 7:00 pm — Apr 23 7:00 pm, Rankin Inlet, Weather by CustomWeather, © 2017

Note: Actual official high and low records may vary slightly from our data, if they occured in-between our weather recording intervals... More about our weather records

Advertising

Rankin Inlet Weather History for the Previous 24 Hours

Scroll right to see more
 ConditionsComfort  
Time TempWeatherWind HumidityBarometerVisibility
7:00 pm
Sun, Apr 23
1 °FScattered clouds.15 mph78%30.29 "Hg15 mi
6:00 pm0 °FSnow flurries. Passing clouds.16 mph84%30.29 "Hg15 mi
5:00 pm0 °FSnow flurries. Passing clouds.16 mph78%30.28 "Hg15 mi
4:00 pm-2 °FSnow flurries. Partly sunny.16 mph77%30.28 "Hg15 mi
3:00 pm-2 °FSnow flurries. Scattered clouds.18 mph77%30.28 "Hg12 mi
2:00 pm-4 °FSnow flurries. Scattered clouds.18 mph77%30.27 "Hg10 mi
1:00 pm-4 °FSnow flurries. Partly sunny.17 mph71%30.27 "Hg8 mi
12:00 pm-6 °FSnow flurries. Overcast.17 mph77%30.27 "Hg4 mi
11:00 am-8 °FSnow flurries. Overcast.17 mph77%30.26 "Hg5 mi
10:00 am-11 °FSnow flurries. Overcast.18 mph76%30.26 "Hg6 mi
9:00 am-13 °FSnow flurries. Partly sunny.16 mph76%30.26 "Hg10 mi
8:00 am-15 °FSnow flurries. Partly sunny.18 mph69%30.25 "Hg10 mi
7:00 am-17 °FBroken clouds.17 mph76%30.24 "Hg10 mi
6:00 am-17 °FSnow flurries. Passing clouds.18 mph69%30.24 "Hg8 mi
5:00 am-18 °FSnow flurries. Passing clouds.16 mph75%30.24 "Hg8 mi
4:00 am-17 °FSnow flurries. Passing clouds.16 mph76%30.24 "Hg8 mi
3:00 am-17 °FSnow flurries. Passing clouds.16 mph76%30.24 "Hg10 mi
2:00 am-15 °FSnow flurries. Passing clouds.17 mph76%30.24 "Hg10 mi
1:00 am-13 °FPassing clouds.18 mph76%30.25 "Hg8 mi
12:00 am-11 °FSnow flurries. Passing clouds.18 mph76%30.25 "Hg8 mi
11:00 pm
Sat, Apr 22
-11 °FSnow flurries. Passing clouds.17 mph84%30.26 "Hg8 mi
10:48 pm-11 °FSnow flurries. Passing clouds.15 mph84%30.26 "Hg10 mi
10:00 pm-9 °FPassing clouds.15 mph77%30.27 "Hg15 mi
9:00 pm-8 °FPassing clouds.14 mph77%30.28 "Hg15 mi
8:00 pm-4 °FPartly sunny.17 mph77%30.28 "Hg15 mi
Weather by CustomWeather, © 2017

See weather overviewHow to use our weather pages